Wind_Speed
26 26 26 26 25 23 22 21 21 20 20 20 20 20 20 20 21 21 21 22 22 22 22 22 22 23 24 24 25 25 25 26 26 26 26 26 25 26 26 25 25 27 27 26 25 24 24 23 22 21 21 22 22 22 21 20 19 19 18 16 15 14 15 16 19 21 22 22 22 22 23 24 26 28 30 31 33 33 33 33 33 33 32 31 31 32 33 33
27 26 26 26 26 25 23 23 22 21 21 20 20 20 20 20 20 20 20 20 20 21 21 21 21 21 22 22 22 23 23 24 25 25 25 25 24 24 24 24 24 25 25 25 24 22 22 22 21 20 20 21 21 21 21 20 19 18 16 15 14 15 16 17 19 21 21 22 22 22 23 24 26 29 30 31 33 33 34 34 34 33 33 33 33 33 34 34
27 27 26 26 26 26 25 24 23 23 22 22 21 21 20 20 20 20 20 20 20 20 20 20 20 20 21 21 21 22 22 23 24 24 23 24 23 23 23 23 23 24 24 24 23 22 22 21 21 20 20 20 21 21 21 20 20 18 16 14 14 15 16 18 19 21 20 20 21 22 23 24 26 28 28 31 32 33 34 35 35 35 35 34 34 34 34 33
26 26 27 26 26 26 26 25 25 24 23 23 22 21 21 20 20 20 20 20 19 19 19 20 20 20 20 21 21 22 22 23 23 23 23 23 23 23 22 23 23 23 23 23 22 22 22 22 21 21 21 21 21 21 21 21 20 18 16 14 15 17 17 17 19 20 19 19 20 21 21 22 24 26 26 29 30 32 34 36 37 37 36 35 34 33 31 30
25 25 26 27 26 26 27 27 26 25 25 24 23 23 22 21 21 21 21 21 20 20 20 20 20 20 21 21 21 22 22 23 23 23 23 23 22 22 22 22 22 23 22 23 23 23 22 22 22 22 22 22 22 22 21 21 20 18 16 15 17 19 18 18 19 18 18 18 18 19 19 20 22 23 24 27 29 31 32 34 35 36 35 32 30 28 26 27
23 24 25 26 26 26 27 28 27 26 26 26 25 24 23 23 22 22 23 22 22 21 21 20 19 20 20 21 22 22 23 24 23 22 22 22 22 22 22 22 23 23 23 23 24 23 23 23 23 23 23 23 23 23 22 22 20 18 17 17 19 20 19 21 20 17 17 17 17 18 18 19 20 21 23 25 28 29 30 31 31 31 29 27 25 24 25 26
23 23 24 25 26 26 27 27 28 28 27 27 26 26 25 24 24 24 25 25 24 23 23 21 20 20 20 21 21 22 23 23 22 22 22 21 21 21 21 22 22 23 23 24 24 24 24 24 24 24 24 25 24 24 23 22 21 19 18 19 20 21 21 22 20 17 17 17 18 17 18 19 19 20 21 24 25 26 27 28 28 27 25 24 24 26 27 28
22 23 23 24 25 26 27 27 28 29 28 27 27 26 25 25 25 25 26 26 25 25 24 24 22 21 20 20 21 22 23 22 22 21 21 21 21 21 21 21 22 22 23 23 24 25 25 25 25 26 26 26 26 25 24 24 22 20 20 21 21 21 22 21 19 17 16 17 18 17 18 20 20 20 21 22 22 22 24 26 26 26 25 25 26 28 29 27
22 23 23 23 24 25 26 27 28 29 29 28 27 27 26 25 25 26 27 26 25 25 24 24 24 23 22 21 21 22 23 22 21 21 21 20 21 21 21 21 21 22 22 23 24 25 26 26 27 27 27 27 27 26 25 24 23 22 22 22 22 22 22 19 17 16 15 17 18 17 19 21 21 20 20 20 20 22 23 24 24 24 25 25 26 26 26 24
20 22 23 23 23 24 25 27 27 28 28 28 28 27 27 26 26 26 26 26 25 24 24 24 24 24 24 23 22 23 22 22 22 21 20 20 20 20 21 21 21 21 22 22 23 25 26 27 27 27 27 27 27 27 25 25 24 23 23 22 21 22 20 18 17 17 16 17 17 17 19 22 22 19 18 19 20 22 22 23 23 22 23 23 23 24 24 21
20 20 21 22 23 23 24 25 26 26 27 27 27 28 28 27 26 26 25 24 24 23 23 23 23 24 24 24 24 23 22 22 22 21 20 21 20 20 20 20 20 21 21 22 23 24 25 25 25 26 27 27 27 26 25 24 23 23 22 21 21 21 19 18 17 18 18 18 18 18 20 21 20 17 16 18 20 21 21 21 20 20 20 20 21 23 22 19
20 20 20 21 22 22 23 24 25 26 25 26 26 27 27 27 26 25 24 23 22 22 22 22 22 23 23 24 24 23 23 23 22 20 21 21 20 20 20 20 20 20 20 21 21 22 23 23 24 25 25 25 26 26 26 25 23 22 21 21 21 20 19 19 19 20 19 19 19 19 20 20 18 16 16 19 20 20 18 17 18 19 19 20 22 23 19 16
20 20 20 20 20 21 22 23 24 25 25 25 25 26 26 26 25 24 23 22 21 21 21 21 22 22 23 24 24 23 24 24 21 21 21 20 20 19 20 20 20 19 19 19 19 20 21 22 22 24 24 25 26 26 26 25 24 22 21 21 21 20 20 20 20 21 21 22 22 21 22 20 17 17 18 20 20 19 17 15 16 18 19 21 23 22 18 17
20 20 20 20 19 20 20 22 23 24 24 24 25 24 24 24 24 23 22 22 21 21 22 22 22 23 24 24 23 24 24 22 21 21 21 20 19 19 19 19 19 19 18 18 18 19 20 20 21 22 23 24 25 25 26 26 25 24 23 22 22 22 22 22 23 24 24 25 24 23 22 20 19 19 20 21 20 19 17 16 17 19 20 22 23 22 19 19
20 20 20 20 19 19 19 20 22 23 23 23 23 23 23 23 23 22 22 22 22 22 22 22 22 23 24 23 24 25 23 21 21 21 21 20 19 19 18 18 18 17 17 17 17 18 19 19 20 21 22 24 25 25 26 26 25 24 24 24 24 24 24 24 26 27 28 27 25 24 22 20 20 20 21 21 21 20 19 18 20 21 22 23 24 23 21 21
20 20 20 20 19 19 18 18 20 21 22 22 23 23 22 22 22 22 23 23 23 22 22 23 23 23 24 23 23 24 22 20 20 20 20 19 18 18 18 17 17 16 16 16 16 16 17 17 19 20 22 23 25 26 27 27 26 25 25 25 25 25 25 26 28 28 28 27 25 24 23 22 21 21 22 22 22 22 22 21 23 24 24 25 24 23 23 23
21 21 20 20 19 18 18 18 19 20 21 22 22 22 22 22 23 23 23 23 23 23 22 23 22 22 23 22 23 23 21 20 20 20 19 18 18 18 17 17 16 15 15 14 15 14 15 16 17 19 21 23 25 26 27 27 26 26 26 26 25 25 26 27 28 28 27 26 25 25 24 23 22 22 23 23 24 24 24 24 24 25 25 25 24 24 24 23
21 21 21 20 19 18 18 18 18 19 20 21 21 22 22 22 23 23 23 23 23 23 22 22 21 22 22 22 23 22 20 19 19 18 18 18 18 18 17 16 15 15 14 14 14 14 15 16 17 19 20 22 23 25 26 26 26 27 27 27 26 26 26 27 28 27 26 25 25 24 24 24 23 24 25 24 25 25 25 25 24 24 25 24 24 24 24 23
21 21 21 21 20 19 18 18 18 19 19 20 21 21 21 23 23 23 23 23 23 22 22 21 21 22 21 21 22 21 20 19 18 18 18 18 18 17 17 16 15 15 14 14 15 14 14 15 16 16 18 19 22 23 25 26 27 28 27 27 27 26 27 27 27 26 25 24 24 23 24 25 25 24 24 24 24 24 24 22 22 22 22 22 23 23 23 23
22 22 22 21 21 20 19 18 18 18 18 19 20 20 21 22 23 23 23 23 23 22 21 21 21 21 21 20 20 20 19 19 18 18 17 17 17 17 16 16 15 15 15 15 14 13 14 14 14 16 17 20 21 22 24 25 26 26 25 26 26 26 26 27 27 26 24 23 22 22 24 24 24 23 22 23 23 21 20 19 19 19 19 21 22 22 22 21
22 22 22 22 22 21 20 19 19 18 18 18 18 19 20 22 22 22 22 22 22 21 21 21 21 21 21 21 21 20 19 18 18 18 17 17 17 17 16 16 16 16 16 15 14 13 14 15 16 18 19 20 21 21 22 24 24 24 24 24 25 25 26 26 26 25 23 21 20 21 23 23 22 21 21 20 19 17 17 17 18 17 18 20 20 21 21 19
23 23 23 23 22 22 21 21 20 19 18 18 17 18 20 21 22 21 21 21 21 20 21 21 21 21 21 21 22 21 19 18 18 17 17 17 17 17 16 16 17 16 16 15 14 14 15 17 18 18 18 18 19 20 21 22 22 22 22 23 23 24 25 25 24 23 21 20 20 21 22 22 21 20 18 16 15 16 16 17 18 18 19 20 20 20 19 17
23 23 24 24 23 23 22 22 20 20 19 18 18 18 20 21 21 20 20 20 20 20 20 21 21 22 22 22 22 21 20 19 18 17 16 16 16 16 16 16 17 16 15 14 15 16 17 17 17 17 17 18 18 19 20 20 20 20 20 21 22 24 25 24 23 22 21 20 20 21 21 21 19 18 17 15 15 15 16 17 18 19 19 18 17 16 14 14
22 23 24 24 24 24 23 23 22 20 20 19 18 19 21 21 21 20 19 18 19 19 19 20 21 22 22 22 22 22 22 20 19 17 16 16 16 15 16 17 16 15 14 15 15 16 17 16 16 16 17 18 18 18 19 18 18 17 18 19 21 23 23 23 22 22 21 20 21 22 21 20 19 17 16 15 15 16 16 16 16 15 15 14 13 12 12 12
21 22 23 24 25 24 24 24 23 22 21 19 19 20 21 22 21 20 20 18 19 19 18 19 22 22 22 21 22 23 23 21 20 19 18 18 17 16 17 17 16 15 15 16 16 16 17 16 16 17 17 17 17 18 18 17 16 16 17 18 20 22 23 22 22 22 21 21 22 22 22 21 20 19 17 16 16 16 16 16 15 14 13 13 13 13 13 11
21 22 22 23 25 25 25 25 24 24 23 21 20 21 22 22 21 20 20 19 19 20 19 19 21 22 22 21 22 24 24 22 22 21 20 19 19 18 17 17 16 16 16 17 18 18 17 17 17 17 16 16 16 17 17 16 15 15 16 18 20 22 23 22 23 23 23 22 22 23 22 21 20 19 17 17 17 18 18 17 16 15 14 13 14 13 12 11
22 22 22 23 24 25 25 25 25 25 24 23 22 22 22 23 22 21 21 20 19 20 21 21 21 21 22 22 22 24 24 24 24 22 21 21 19 19 18 17 16 17 18 18 19 18 17 17 17 17 16 15 15 15 15 15 15 16 17 18 21 23 24 23 23 23 24 24 24 24 23 21 21 20 18 18 19 19 20 19 17 14 13 13 12 11 10 9
24 23 22 23 24 25 26 26 26 26 25 24 24 24 24 23 22 21 21 20 18 19 21 22 22 22 22 22 22 23 24 25 24 22 23 23 21 20 19 18 17 18 19 19 19 19 18 18 18 17 17 16 15 15 16 16 17 17 18 19 21 23 24 24 24 24 25 25 25 26 25 23 23 22 20 19 20 21 21 19 17 14 12 12 12 11 11 11
26 25 23 24 24 25 26 27 27 27 26 26 26 26 26 24 23 22 21 19 18 18 20 22 22 23 23 22 21 23 25 26 25 24 25 24 22 21 20 19 20 20 20 20 20 20 20 20 19 18 18 16 16 17 17 17 18 18 19 19 20 22 24 25 25 25 26 27 27 27 26 25 24 24 23 22 22 23 22 20 17 14 13 12 12 12 13 14
28 27 25 24 25 24 25 28 29 27 26 27 27 27 28 27 25 24 21 19 19 20 20 21 22 22 23 22 22 23 25 26 26 26 26 25 24 23 22 22 22 21 21 21 21 22 21 21 21 20 19 18 18 18 18 18 19 19 19 20 21 22 23 25 26 27 28 28 28 28 28 26 26 26 25 25 25 25 23 21 18 16 15 14 14 15 16 17
29 29 27 25 25 25 25 28 29 28 27 28 28 28 29 28 27 26 21 19 21 21 21 21 21 21 21 21 22 23 25 25 25 26 27 26 25 25 24 24 24 23 22 22 22 23 22 22 22 21 20 19 19 19 19 19 19 19 20 21 21 22 23 24 27 28 29 30 30 29 29 29 28 28 26 26 26 26 24 23 21 19 17 16 16 17 19 20
29 29 28 26 25 26 27 29 29 28 28 29 30 30 29 30 30 26 21 21 22 22 21 21 21 21 20 19 20 22 24 25 25 25 26 26 25 24 24 24 24 24 23 23 22 23 23 23 22 22 22 21 21 21 21 20 20 20 20 21 21 22 23 24 26 28 29 30 30 31 31 31 30 29 28 27 27 27 26 25 24 22 20 20 20 20 21 22
28 28 28 27 25 27 29 30 29 28 29 30 32 31 31 32 31 25 22 23 24 23 22 22 21 21 20 19 20 21 23 24 25 25 26 26 24 24 24 24 25 25 24 23 23 23 24 24 24 24 24 23 23 23 22 21 20 20 19 20 21 22 24 25 26 27 28 29 30 31 32 32 32 31 30 29 28 28 28 27 26 25 24 24 24 24 24 25
28 27 27 27 26 27 29 30 29 28 28 31 33 33 34 34 29 23 22 25 25 24 23 22 22 21 20 20 20 21 22 23 24 24 26 26 25 25 24 24 25 25 25 25 24 25 25 25 25 25 25 25 24 23 22 21 21 21 21 22 22 23 25 26 26 27 27 27 28 30 32 34 34 32 31 30 29 29 29 29 29 28 28 28 28 28 28 28
28 27 27 26 26 26 29 31 31 29 29 31 33 36 36 32 26 23 24 26 27 26 24 23 23 22 22 21 21 22 22 22 22 23 24 25 25 25 25 24 25 25 25 25 26 26 26 26 27 27 26 26 25 24 23 23 23 23 23 23 23 24 24 25 27 27 27 27 27 28 30 32 32 32 32 31 31 30 31 31 31 31 31 31 31 31 31 32
28 27 26 26 26 26 28 31 32 32 30 30 33 36 33 29 27 26 25 27 28 27 25 25 25 24 23 23 23 23 22 22 22 22 23 23 24 25 25 25 25 25 25 25 25 26 25 25 26 28 28 28 27 26 26 26 25 25 25 24 22 22 23 24 26 27 27 27 27 27 28 28 28 28 29 29 30 30 32 33 33 33 32 31 31 31 31 32
28 27 26 26 26 27 28 30 33 34 32 32 34 33 30 28 29 29 28 28 28 28 27 27 26 26 25 25 24 23 24 24 24 24 24 24 24 24 24 24 25 25 26 25 25 25 25 24 25 27 28 28 28 28 28 27 26 26 25 24 22 22 23 23 24 26 27 27 27 26 26 25 25 23 23 22 24 25 27 28 29 29 29 28 28 27 28 29
28 28 28 27 26 27 28 30 32 34 34 34 34 31 28 29 30 30 30 30 29 29 28 28 28 28 27 27 26 25 25 25 26 26 26 26 26 25 25 25 25 26 27 27 27 27 26 25 25 27 28 28 29 29 29 29 28 27 25 24 23 23 22 22 23 25 25 25 25 24 24 23 22 19 18 18 19 21 23 25 26 26 25 25 24 24 25 26
28 29 29 29 28 28 29 30 32 34 36 35 33 30 28 27 28 30 32 32 32 31 30 30 30 30 29 29 28 28 27 27 28 27 28 29 29 28 27 27 28 28 28 29 29 28 28 26 26 28 28 29 31 31 31 30 29 28 26 25 25 24 22 21 22 22 22 23 22 22 21 20 18 17 17 17 17 18 19 21 23 24 24 24 23 23 24 24
27 28 29 30 30 30 30 31 32 34 35 34 32 30 29 27 28 29 31 33 34 33 31 31 31 31 31 30 30 30 29 29 29 29 29 31 31 32 31 30 31 31 30 31 31 31 31 29 28 29 29 30 32 33 33 32 31 29 27 26 25 24 23 23 22 22 22 22 21 20 19 17 16 16 16 15 15 15 15 17 18 19 19 20 21 22 23 23
26 27 28 29 30 31 31 32 33 34 34 33 32 31 30 29 29 30 32 34 35 35 34 32 32 32 32 32 31 31 31 31 30 30 30 30 31 32 32 32 33 33 33 34 34 33 33 32 30 30 31 31 31 32 32 32 32 31 28 26 25 25 25 24 23 23 22 21 19 18 17 16 15 16 16 15 14 14 14 15 16 16 15 15 17 20 22 24
24 25 25 26 28 29 31 33 34 34 34 32 32 32 32 32 32 33 34 35 35 36 35 34 34 33 33 33 33 32 31 31 30 30 30 30 30 30 31 31 32 34 35 36 37 36 35 34 32 32 32 32 31 31 31 32 32 31 30 28 26 27 27 25 24 23 22 20 19 18 18 17 16 16 15 15 14 15 16 16 16 16 15 14 15 17 19 21
23 23 23 24 25 27 29 31 33 35 35 33 31 32 33 33 34 34 35 35 35 35 35 35 35 34 34 33 33 33 32 31 30 29 29 29 28 28 29 30 31 33 36 38 39 39 38 36 34 33 32 32 32 32 32 33 32 31 31 30 28 27 27 26 25 24 23 22 21 20 20 20 18 17 16 16 16 16 17 17 17 16 16 16 16 17 17 18
22 23 23 23 24 25 26 28 30 32 34 33 31 32 34 35 34 34 34 34 34 34 34 35 35 35 35 34 33 33 33 32 30 30 29 28 28 28 28 28 29 31 34 39 41 39 38 38 36 35 34 33 33 34 34 33 33 31 31 30 29 27 27 26 26 25 25 25 23 23 23 21 19 19 18 18 17 16 17 17 17 16 16 17 17 17 18 18
21 22 22 22 22 23 24 25 26 29 31 32 30 31 32 34 34 33 33 33 33 33 33 33 34 35 35 35 34 34 33 33 31 30 30 29 29 29 28 27 27 28 29 33 37 37 37 38 38 36 35 34 33 33 32 32 31 30 29 29 28 28 27 27 27 27 27 27 26 26 25 23 22 21 21 20 18 18 18 18 18 18 17 17 18 18 18 19
22 21 20 18 18 19 21 21 22 24 28 30 29 29 30 31 32 32 32 32 32 31 31 31 33 34 35 35 35 34 34 33 32 31 31 30 29 29 28 26 26 27 27 27 30 33 35 36 38 38 36 35 33 31 30 29 29 29 29 29 29 29 29 28 28 29 29 29 29 29 28 26 24 23 23 22 21 20 20 21 21 21 20 20 21 21 21 21
22 20 17 15 15 15 17 18 17 18 22 26 27 27 27 28 29 29 29 30 31 30 29 29 30 32 35 36 36 35 35 34 34 33 32 31 30 29 28 26 25 26 28 26 26 30 34 36 36 38 38 39 38 37 35 33 32 31 30 30 31 32 31 30 30 31 31 31 32 31 30 29 27 25 25 24 24 23 23 24 25 24 24 23 24 25 25 25
21 18 16 14 14 14 14 16 16 14 15 21 24 24 25 25 26 26 27 28 29 29 29 28 28 30 33 35 36 36 36 36 36 35 34 33 31 30 28 28 27 26 27 27 24 25 30 31 30 32 35 37 40 40 39 37 36 35 34 34 34 34 34 34 34 34 34 35 35 34 33 32 29 28 28 27 26 26 26 26 27 27 27 26 26 27 27 27
21 19 17 16 15 14 13 14 17 15 11 16 20 20 21 22 23 24 26 27 29 29 29 28 27 27 29 33 35 36 36 36 36 36 35 34 33 31 30 29 28 27 27 27 25 23 22 23 23 25 27 30 32 34 35 36 36 36 37 37 38 38 37 37 37 37 38 38 38 37 36 36 34 32 30 29 28 27 27 27 28 28 28 28 28 27 27 27
22 22 20 18 15 11 11 12 18 16 8 10 17 18 17 18 19 21 23 25 27 29 29 28 27 26 27 30 33 34 35 36 36 36 36 35 34 33 33 32 30 29 28 28 28 26 24 21 20 20 22 24 27 29 31 34 36 38 39 39 41 42 42 41 40 39 39 40 40 40 39 39 38 36 35 33 31 29 28 28 29 29 29 29 29 29 29 29
22 24 23 21 16 9 7 11 19 17 7 5 12 18 20 20 20 20 20 22 24 25 26 27 27 27 26 28 31 32 33 35 35 35 35 35 34 34 34 33 32 32 31 31 31 30 29 27 23 20 20 22 24 25 27 32 36 38 39 40 41 41 41 41 41 41 41 41 40 39 40 40 41 40 38 36 34 32 30 29 29 29 30 30 30 30 31 31
22 23 24 22 18 12 4 7 18 21 11 6 6 13 19 21 23 23 21 21 23 24 24 25 25 26 26 26 28 29 31 33 35 35 34 33 32 33 33 33 33 32 31 31 31 31 30 30 28 26 24 24 23 23 24 28 30 30 28 30 33 33 33 34 35 36 38 39 38 36 37 38 39 39 39 36 34 32 31 30 30 31 31 32 33 33 34 35
Wind_Direction
278 275 271 267 265 266 267 267 268 268 268 268 267 267 266 266 265 264 262 260 258 256 254 252 249 247 246 245 245 245 245 246 247 248 249 250 251 252 253 253 253 253 254 254 254 254 254 254 255 254 253 254 254 254 254 253 253 252 251 249 242 236 231 226 231 238 240 240 236 234 237 236 235 236 238 239 241 241 242 243 243 244 245 245 246 250 255 260
276 275 272 268 263 262 262 263 264 264 264 265 266 266 266 265 265 264 263 261 258 256 254 252 250 248 246 245 244 244 245 246 247 247 249 250 250 252 253 253 253 254 255 256 256 256 255 254 254 254 253 253 253 253 253 252 252 251 248 243 237 234 231 227 230 239 242 240 238 235 236 236 235 235 238 239 240 243 244 245 246 245 246 248 251 256 261 265
274 273 272 270 264 260 259 260 261 262 262 263 263 263 263 263 263 262 262 260 258 256 254 252 250 249 248 247 246 246 246 247 247 248 249 250 251 252 253 253 254 255 256 256 256 255 253 252 251 250 249 250 250 250 250 249 248 247 242 235 234 236 233 228 232 242 245 243 243 240 238 237 237 238 239 239 241 244 245 247 247 247 249 253 256 260 263 267
274 271 270 270 267 261 258 258 259 260 260 261 261 261 261 262 262 261 259 258 256 254 253 252 250 250 249 249 248 248 248 248 249 250 251 251 252 253 254 255 254 255 255 255 254 252 251 249 248 247 246 246 247 247 247 246 244 242 236 226 229 234 232 229 235 244 246 245 246 246 244 243 242 244 244 243 245 246 247 248 249 251 254 258 261 263 266 271
277 273 270 269 267 263 258 256 256 258 258 259 259 259 260 261 261 261 260 258 256 254 253 251 250 249 249 249 249 249 249 249 250 251 252 252 253 254 254 254 254 254 253 253 253 251 249 247 245 245 244 243 243 244 243 242 241 236 229 221 225 232 231 232 236 240 243 245 247 250 251 250 248 249 248 247 247 248 249 250 252 254 258 263 265 266 271 277
279 276 272 269 267 264 260 256 255 256 257 258 258 258 259 260 261 261 261 260 258 256 253 251 250 250 249 249 249 250 251 250 250 251 252 253 254 254 254 254 253 252 251 251 250 249 246 244 242 242 241 240 239 240 239 239 237 231 224 221 226 230 229 234 234 233 241 246 249 252 253 252 250 249 248 247 248 249 251 253 255 257 261 265 265 268 274 279
280 277 274 271 267 264 261 257 255 255 256 258 258 259 259 259 260 261 262 262 261 258 255 251 250 249 249 249 250 251 252 252 252 252 253 254 255 255 254 254 253 251 250 249 248 247 245 242 241 239 238 238 237 236 236 236 234 227 222 222 227 228 230 236 235 231 238 246 251 253 252 252 251 250 248 247 249 251 254 255 256 258 260 261 264 270 275 278
280 278 276 274 270 264 261 258 256 254 255 257 258 259 259 260 260 261 262 263 263 261 257 253 250 249 249 249 250 251 252 254 254 254 254 255 256 257 256 256 253 251 249 247 246 245 244 242 239 238 236 236 234 234 235 235 232 226 221 222 227 227 232 240 239 235 236 240 249 253 252 252 253 251 251 251 253 254 256 257 257 258 258 259 265 271 274 277
283 279 277 276 273 267 261 258 256 255 254 256 258 259 260 260 260 261 263 264 264 263 259 255 252 250 249 250 251 252 253 254 255 254 254 254 256 257 258 257 255 251 248 245 244 242 241 239 237 236 236 235 234 234 235 234 231 226 224 225 228 229 235 243 243 240 238 237 243 250 250 251 252 251 252 253 254 255 257 259 259 260 261 262 266 269 271 273
289 283 279 277 275 270 263 258 256 256 255 255 257 258 259 260 260 262 264 266 265 263 260 256 253 251 249 250 252 253 254 254 254 254 254 255 256 257 257 257 255 252 248 244 242 240 239 239 238 236 236 235 235 235 235 234 232 229 229 230 230 231 236 243 244 242 240 238 239 242 244 248 251 251 253 255 255 254 256 258 260 262 262 262 263 264 267 266
294 290 284 279 276 273 267 260 257 256 256 256 256 257 259 259 261 263 265 266 265 262 259 255 253 250 249 249 250 252 254 254 254 253 254 254 255 256 256 255 254 251 249 246 243 241 240 240 240 239 237 235 235 235 235 235 233 232 233 233 232 233 237 240 243 242 239 239 237 237 239 244 250 253 252 253 254 255 256 258 259 259 257 256 258 261 263 262
293 293 290 285 278 274 269 263 258 256 256 256 255 256 257 259 261 263 264 264 262 260 256 253 251 249 249 249 249 251 253 252 252 253 253 254 254 255 254 253 252 250 249 248 245 243 241 240 239 238 238 236 235 235 234 234 233 232 233 235 234 234 236 237 240 242 241 240 238 237 237 240 246 249 247 246 250 253 255 256 253 250 249 249 254 259 260 262
291 291 291 289 284 278 271 266 260 257 256 256 255 255 256 259 260 262 262 261 259 258 255 253 251 250 249 248 247 249 250 250 252 252 252 253 253 252 252 251 251 251 251 250 247 243 241 238 237 236 235 234 233 233 234 233 233 233 232 234 236 236 235 236 239 242 242 242 239 236 235 235 237 239 239 242 245 248 251 249 244 244 245 248 254 259 261 262
290 290 289 288 287 283 276 268 262 258 256 255 255 255 256 257 258 259 259 258 258 257 255 253 251 249 247 246 247 247 247 249 250 250 251 251 251 250 249 250 251 252 252 249 246 242 238 235 233 233 232 231 231 231 232 232 232 232 232 234 236 236 236 236 238 240 241 241 240 239 238 236 234 235 237 241 244 245 245 242 240 242 244 248 255 259 261 262
289 290 289 287 286 286 281 272 264 258 256 255 255 254 254 255 256 256 256 257 257 256 254 252 249 247 246 245 246 245 245 246 247 248 249 249 249 249 248 248 249 249 249 247 245 242 238 234 232 230 228 228 228 229 230 231 231 231 232 233 234 235 236 236 237 238 239 241 242 243 244 241 238 239 242 245 248 246 244 241 240 242 245 250 255 257 258 261
287 289 290 288 285 283 282 277 268 260 257 256 255 254 254 254 255 255 255 255 255 254 253 251 248 246 245 245 245 244 243 244 244 245 247 247 247 246 246 246 246 246 246 247 247 243 239 236 233 230 228 227 226 226 227 228 229 228 230 231 231 233 235 235 236 236 239 241 242 244 246 244 241 242 245 246 248 247 244 241 241 244 247 250 252 254 255 259
284 286 288 289 286 282 280 277 272 265 260 258 257 256 255 254 254 253 253 254 255 254 251 250 248 246 245 243 242 241 240 241 242 243 243 243 243 242 242 243 243 244 245 247 246 241 236 233 232 231 230 228 227 226 226 227 227 227 228 229 229 230 232 234 235 236 238 240 241 242 244 246 245 245 246 246 247 247 244 240 241 244 246 247 249 250 252 257
280 282 285 287 286 283 279 275 272 268 264 260 258 257 255 254 253 252 252 253 253 252 250 248 246 245 244 241 239 238 237 238 240 239 238 238 239 239 239 240 241 241 241 242 241 237 233 230 230 230 230 231 230 229 229 228 228 227 228 229 229 228 230 234 236 236 237 238 240 242 245 248 247 247 248 248 248 248 246 243 241 242 244 245 245 247 250 255
276 278 280 283 284 284 280 276 272 268 265 262 259 257 255 254 253 251 251 251 251 249 248 247 244 243 243 239 236 236 236 237 237 236 236 235 236 236 236 237 238 238 239 238 238 236 234 233 232 230 230 231 231 231 231 231 230 230 230 230 231 230 231 234 237 238 237 239 241 242 244 246 246 247 248 248 247 246 247 246 242 242 244 245 245 247 250 254
274 274 275 277 280 281 281 277 273 270 266 262 260 258 255 254 252 251 250 250 249 249 248 247 245 243 240 236 233 234 235 235 234 233 233 233 233 233 234 234 234 236 237 238 237 235 235 234 230 227 226 227 228 229 231 233 234 234 233 234 235 233 233 235 238 239 238 239 240 241 242 244 245 245 244 243 242 243 244 244 241 240 240 242 244 247 250 253
273 271 271 272 274 276 278 278 275 271 267 264 260 258 255 253 251 250 249 249 248 247 248 246 244 242 237 231 229 231 233 232 232 231 230 231 232 232 232 231 232 233 235 237 236 233 231 229 226 226 226 227 228 229 232 234 236 236 236 237 237 236 236 237 239 240 239 239 238 238 240 242 243 241 241 241 241 240 238 235 234 232 233 238 242 246 249 253
272 270 269 269 269 271 273 275 275 273 269 264 260 257 255 253 252 250 250 251 248 245 247 245 242 239 235 229 228 230 232 232 232 231 230 231 232 233 233 233 233 233 234 236 236 233 231 230 230 232 232 230 229 231 234 235 236 236 236 237 237 236 237 238 239 240 238 234 231 233 237 239 240 239 238 237 236 235 233 230 227 222 225 231 237 242 247 251
273 270 268 266 266 267 268 270 272 273 270 265 261 258 255 252 252 250 249 251 249 244 244 244 240 238 233 229 229 230 232 233 234 233 232 232 233 234 235 235 235 235 235 235 235 235 235 236 237 237 235 232 230 231 234 236 238 238 237 236 234 233 235 235 236 236 234 227 222 225 232 235 237 237 236 233 233 233 231 230 227 222 223 227 233 240 244 243
274 272 269 266 264 263 264 265 266 268 269 266 261 258 256 254 252 250 248 249 249 244 241 242 240 237 233 230 229 230 232 233 235 236 235 234 234 234 236 237 237 236 235 235 237 238 240 240 239 238 237 235 234 233 235 236 237 237 236 234 231 231 233 233 233 233 230 223 217 221 228 232 232 231 232 231 231 230 228 228 224 221 222 227 233 237 233 226
275 273 270 268 265 262 261 262 263 263 265 265 262 259 257 256 253 251 247 245 247 245 239 239 240 237 233 230 228 230 232 233 234 235 236 235 234 233 235 236 236 235 234 236 239 241 243 243 241 240 238 237 236 235 235 234 233 232 230 230 228 229 230 229 228 229 228 221 217 221 225 228 230 227 226 228 228 224 222 220 216 216 223 232 236 234 229 221
275 274 271 268 266 263 260 259 259 259 260 261 261 259 258 257 254 252 249 244 244 245 240 237 239 237 233 228 227 230 232 233 233 235 237 237 237 236 236 236 235 234 234 236 239 241 243 243 243 242 241 239 237 236 235 232 230 227 226 227 225 226 227 225 225 225 225 222 221 223 223 225 230 230 227 227 225 222 220 221 221 226 235 242 242 238 233 228
275 273 271 269 266 264 261 258 257 256 256 256 257 258 258 257 254 253 251 247 243 243 242 239 238 238 235 231 229 231 233 233 234 235 237 238 237 235 236 236 235 235 237 240 243 243 244 245 245 244 244 241 237 236 234 230 229 227 226 226 224 225 226 225 224 223 224 224 224 226 226 225 229 232 230 228 226 225 225 228 234 239 244 246 246 246 246 247
273 271 270 268 266 264 262 258 256 254 254 253 253 255 256 256 255 252 252 251 247 244 242 240 238 237 237 235 232 231 233 234 234 233 235 237 237 237 237 235 233 233 236 240 243 243 242 244 244 244 244 241 237 235 233 230 230 229 228 228 226 225 226 225 223 222 224 225 225 228 230 228 230 232 232 230 229 228 229 233 239 243 245 248 252 256 262 267
272 270 268 267 266 263 261 259 256 253 252 251 251 252 253 253 253 252 251 251 249 245 242 241 239 237 237 235 231 231 234 236 236 234 236 238 238 238 238 236 235 234 234 237 240 242 242 244 245 245 244 241 238 236 235 233 231 231 231 231 229 226 226 227 224 221 224 226 227 230 233 232 232 233 233 232 231 231 234 238 242 245 246 250 254 258 266 270
271 269 266 264 264 263 261 258 255 252 250 250 249 250 251 250 250 250 250 250 249 247 244 242 240 239 238 236 232 231 233 236 236 237 239 239 238 237 236 237 237 237 236 236 240 243 244 245 246 246 245 244 242 240 239 237 235 235 235 234 233 230 228 229 228 225 225 226 229 232 235 236 235 235 235 234 234 235 238 241 247 251 252 255 259 262 267 269
271 270 267 263 262 262 260 257 256 252 248 248 248 248 249 249 248 247 248 249 249 247 245 243 241 239 238 236 233 233 234 234 235 236 238 238 238 238 238 239 240 239 238 238 240 244 247 248 248 249 248 246 246 244 243 241 239 239 239 238 237 235 232 230 230 231 229 229 230 233 236 238 238 238 239 239 239 240 241 243 248 252 253 257 263 268 271 271
271 270 268 263 259 259 257 257 256 253 248 246 246 246 247 247 246 245 245 247 247 247 245 244 243 239 236 233 231 233 235 235 235 235 237 237 237 237 238 240 241 242 242 241 242 246 249 249 249 249 248 247 246 245 245 243 241 239 239 240 240 240 238 235 233 234 235 234 234 234 235 238 239 241 242 242 242 242 242 246 249 252 254 258 263 267 270 272
272 270 269 265 258 255 256 257 256 254 249 245 245 245 245 246 245 243 242 243 245 246 244 244 243 241 237 233 230 230 233 236 236 235 236 236 234 233 234 236 239 240 239 239 239 241 245 246 246 246 246 246 245 246 247 248 246 245 243 242 242 243 244 243 240 240 240 240 240 239 238 238 240 242 244 244 244 243 244 247 250 252 255 258 263 264 266 270
273 271 269 266 260 254 255 256 255 254 251 246 245 245 244 245 245 242 239 241 243 243 243 242 242 241 238 234 231 231 232 235 236 236 236 236 235 233 233 235 238 239 238 237 235 235 237 239 241 243 244 246 247 246 246 246 245 244 243 242 242 244 246 247 248 246 244 242 241 241 240 240 241 242 244 246 247 248 248 250 252 253 255 258 260 262 263 268
275 272 270 267 262 255 252 253 253 251 249 247 245 245 245 246 245 242 238 239 240 240 240 241 241 240 238 235 232 231 232 234 236 237 238 238 237 236 235 234 237 239 240 239 238 237 236 235 237 239 240 242 244 245 244 242 243 244 244 245 246 248 249 248 249 248 246 244 242 241 241 243 244 243 244 245 248 251 253 255 257 257 258 259 259 259 260 262
277 274 271 268 264 257 252 251 251 249 247 246 245 246 247 246 243 240 237 237 239 239 239 238 239 239 238 236 234 232 232 233 235 237 238 240 239 238 236 232 232 235 237 238 240 241 240 237 236 237 238 239 238 241 243 242 243 245 247 249 249 249 248 245 245 246 247 245 245 244 244 245 246 244 244 244 246 250 252 255 257 259 260 259 259 258 257 257
279 276 273 268 264 260 254 250 250 249 246 245 246 247 246 243 240 238 237 237 237 237 237 236 237 237 237 236 235 234 233 233 234 235 238 239 240 240 238 234 232 232 232 234 237 239 240 237 235 235 236 237 236 236 240 241 239 241 246 248 247 246 244 241 241 244 246 246 247 247 247 246 246 245 245 245 245 247 249 252 255 257 259 259 258 256 255 254
279 277 273 269 263 259 255 251 249 249 246 244 244 245 243 240 238 237 236 236 236 235 234 234 235 235 235 236 235 234 233 234 234 234 235 238 238 239 238 236 235 232 230 233 235 236 237 236 235 235 232 233 234 233 234 237 237 238 242 244 243 242 243 243 242 245 249 250 250 250 249 249 249 250 250 249 248 248 250 254 257 258 259 258 258 256 254 252
279 276 273 269 263 258 254 251 249 248 246 244 243 244 242 239 237 236 235 235 235 234 232 232 233 234 234 235 236 236 234 234 235 234 234 236 238 237 236 235 235 232 231 234 237 239 240 237 236 237 234 231 233 233 231 234 237 240 240 240 241 242 243 244 243 244 247 248 249 250 251 252 255 257 256 254 253 252 252 255 257 258 257 255 254 254 253 252
281 277 272 268 263 258 253 250 248 247 247 245 243 242 240 238 236 235 234 234 233 233 231 230 231 233 233 234 236 237 237 236 236 235 234 235 236 237 237 236 236 235 233 235 238 240 241 239 236 237 237 234 233 234 233 233 236 240 241 242 243 244 244 244 243 242 242 245 247 249 252 256 257 256 255 252 249 249 250 252 254 254 253 249 247 247 248 248
285 279 274 269 264 259 253 249 247 246 246 244 241 239 237 235 233 233 233 232 232 231 231 230 230 230 232 234 235 236 238 238 238 237 237 237 238 240 240 238 238 239 236 235 237 239 240 241 237 236 237 236 235 236 235 234 235 238 241 242 243 244 243 244 244 243 242 244 247 251 256 257 253 250 251 247 243 246 251 250 249 250 249 245 241 241 242 242
290 284 279 274 268 261 254 249 245 244 243 241 238 236 235 233 231 231 232 232 231 231 230 229 229 230 230 232 235 236 237 239 240 240 240 241 241 243 244 242 241 241 240 237 236 237 239 240 237 234 235 236 237 236 236 236 236 237 240 241 241 241 242 243 245 245 244 245 246 249 252 250 247 249 250 245 242 247 249 247 245 247 248 248 245 242 242 241
296 290 285 281 275 266 257 249 244 242 240 239 236 233 232 231 230 230 231 232 232 232 231 230 229 230 230 231 234 236 238 239 241 242 243 243 244 245 245 244 245 245 245 242 237 235 236 237 236 235 235 236 238 238 238 238 237 236 238 241 241 241 241 243 245 245 245 245 244 244 245 245 245 250 250 247 246 245 242 241 241 245 249 252 252 249 247 246
301 297 292 286 279 270 260 251 245 240 237 236 234 231 230 230 230 230 231 233 234 233 232 231 230 230 230 231 233 235 238 239 240 242 244 245 247 247 245 244 245 247 246 242 236 234 233 233 234 235 235 235 237 237 238 238 238 238 238 240 242 241 241 241 243 244 244 245 244 242 241 241 244 248 248 247 246 242 237 237 238 241 246 250 253 254 252 249
308 303 298 290 281 270 259 251 245 240 235 232 231 230 229 229 229 229 230 232 234 235 234 233 231 230 230 231 232 234 237 240 241 242 244 246 247 249 249 248 246 247 248 242 234 232 232 231 232 235 237 239 241 241 241 241 241 242 242 242 243 243 242 242 243 244 245 245 245 242 240 241 243 246 247 247 246 244 240 238 238 240 246 249 251 254 254 251
319 312 305 294 282 269 258 250 245 241 235 229 228 228 228 229 229 229 230 231 233 235 236 234 232 230 230 231 231 233 235 239 241 243 246 248 250 251 252 252 250 248 250 248 240 236 235 233 233 234 234 237 240 241 241 241 242 243 243 242 243 243 243 243 244 245 246 245 244 243 241 241 242 243 244 245 247 248 246 243 242 244 248 250 249 250 250 250
329 323 314 303 288 273 260 248 241 240 237 231 227 226 227 228 230 230 230 230 232 234 235 236 234 232 230 230 231 232 234 237 240 242 245 249 252 254 254 255 254 250 248 250 250 245 239 236 235 236 234 234 233 233 233 233 233 236 238 239 239 240 241 241 242 244 245 245 243 243 244 244 244 242 242 244 247 249 249 248 247 248 251 251 250 248 248 249
339 332 322 311 297 279 263 245 231 229 235 231 227 225 226 227 229 230 229 229 231 232 234 236 236 233 231 230 231 232 234 237 240 243 245 248 251 253 255 256 256 253 247 246 249 250 244 238 235 235 236 236 234 231 230 230 230 231 234 236 235 235 236 237 239 241 244 244 243 244 246 246 245 242 240 242 246 248 250 250 251 251 252 251 250 250 250 251
349 343 333 322 306 283 264 240 223 219 225 225 223 223 224 226 229 231 230 229 229 231 232 235 238 236 234 232 232 233 234 236 240 244 245 248 250 250 251 254 255 255 251 246 245 247 246 240 233 229 232 237 239 238 236 236 237 237 239 241 241 239 237 236 237 238 241 244 245 246 247 248 246 243 240 241 245 248 252 253 254 255 255 254 253 253 254 255
353 351 345 337 324 292 260 229 214 212 212 211 214 217 217 220 225 229 229 227 227 230 232 233 236 237 236 235 234 234 235 237 240 243 246 248 249 249 248 249 251 252 253 252 249 247 249 251 244 236 235 237 241 246 247 247 246 244 243 245 245 244 241 239 238 239 242 244 246 247 248 249 249 247 243 242 245 250 255 257 258 258 258 258 257 257 258 259
355 355 353 350 348 328 267 219 204 200 180 161 203 212 213 213 217 222 225 225 224 227 231 232 235 237 237 237 236 235 236 238 240 242 245 247 249 250 250 249 251 252 254 256 256 254 254 257 256 251 247 243 241 244 248 249 248 245 243 243 244 244 242 240 239 240 241 243 244 245 246 246 247 247 245 243 247 252 257 258 258 259 260 260 261 261 261 261
359 359 359 358 359 359 337 215 203 200 183 126 160 200 210 217 223 224 227 230 228 226 228 232 234 235 235 235 237 236 236 239 241 242 244 246 248 250 252 253 254 255 255 257 259 257 256 256 256 253 251 249 245 243 244 246 249 248 246 243 244 245 245 245 244 241 240 240 240 240 240 241 242 242 241 242 247 252 256 257 258 259 261 262 262 263 263 263
Height
5738 5738 5738 5738 5738 5739 5739 5739 5740 5740 5740 5741 5741 5741 5742 5742 5743 5743 5744 5744 5745 5746 5746 5747 5748 5748 5749 5750 5751 5752 5753 5754 5755 5756 5757 5758 5759 5760 5761 5763 5764 5765 5766 5767 5769 5770 5772 5773 5774 5775 5776 5777 5778 5779 5780 5781 5782 5783 5784 5785 5785 5786 5787 5788 5788 5790 5791 5792 5793 5795 5796 5797 5798 5798 5799 5800 5801 5802 5803 5803 5804 5805 5805 5806 5807 5808 5809 5810
5735 5735 5735 5735 5736 5736 5736 5737 5737 5738 5738 5738 5739 5739 5740 5740 5740 5741 5742 5742 5743 5743 5744 5745 5745 5746 5747 5748 5749 5750 5750 5751 5752 5753 5754 5756 5757 5758 5759 5760 5761 5762 5763 5764 5766 5767 5769 5770 5771 5772 5773 5774 5775 5776 5777 5779 5780 5781 5782 5782 5783 5784 5785 5786 5786 5788 5789 5790 5791 5793 5794 5795 5796 5796 5797 5798 5799 5800 5801 5802 5802 5803 5803 5804 5805 5806 5808 5809
5732 5732 5732 5732 5733 5733 5734 5734 5735 5735 5736 5736 5736 5737 5737 5738 5738 5739 5740 5740 5741 5741 5742 5742 5743 5744 5745 5746 5746 5747 5748 5749 5750 5751 5752 5753 5754 5755 5756 5757 5758 5759 5760 5762 5763 5764 5766 5767 5768 5769 5770 5771 5772 5774 5775 5776 5777 5778 5779 5780 5781 5782 5783 5784 5785 5786 5788 5789 5789 5791 5792 5793 5794 5795 5796 5797 5798 5799 5799 5800 5800 5801 5802 5803 5804 5805 5807 5808
5729 5729 5729 5729 5730 5730 5731 5731 5732 5732 5733 5733 5734 5735 5735 5736 5736 5737 5737 5738 5739 5739 5740 5740 5741 5742 5742 5743 5744 5745 5746 5747 5747 5748 5750 5750 5751 5753 5754 5755 5756 5757 5758 5759 5760 5761 5762 5764 5765 5766 5768 5769 5770 5771 5772 5773 5775 5776 5777 5778 5779 5780 5781 5782 5783 5784 5786 5787 5787 5789 5790 5792 5792 5793 5795 5796 5797 5797 5798 5798 5798 5799 5801 5802 5804 5805 5806 5806
5726 5726 5726 5726 5727 5727 5728 5728 5729 5730 5730 5731 5731 5732 5733 5733 5734 5734 5735 5736 5736 5737 5737 5738 5739 5739 5740 5741 5742 5742 5743 5744 5745 5746 5747 5748 5749 5750 5751 5752 5753 5754 5755 5756 5757 5758 5759 5761 5762 5763 5765 5766 5767 5768 5769 5771 5772 5774 5775 5776 5777 5778 5779 5780 5781 5782 5784 5785 5786 5787 5789 5790 5791 5792 5793 5794 5795 5795 5796 5796 5797 5798 5800 5802 5803 5803 5804 5804
5723 5723 5723 5723 5724 5724 5725 5725 5726 5727 5727 5728 5729 5729 5730 5731 5731 5732 5733 5733 5734 5734 5735 5736 5736 5737 5738 5738 5739 5740 5741 5742 5743 5744 5745 5745 5746 5747 5748 5749 5750 5751 5752 5753 5754 5755 5756 5758 5759 5760 5761 5763 5764 5765 5767 5768 5770 5771 5773 5774 5774 5775 5776 5777 5779 5781 5782 5783 5784 5785 5786 5788 5789 5790 5791 5792 5793 5794 5794 5795 5796 5797 5800 5801 5801 5801 5802 5802
5721 5721 5721 5721 5721 5721 5722 5722 5723 5724 5724 5725 5726 5726 5727 5728 5729 5729 5730 5731 5731 5732 5732 5733 5734 5735 5735 5736 5737 5737 5738 5739 5740 5741 5742 5743 5744 5745 5745 5746 5747 5748 5749 5750 5751 5752 5753 5755 5756 5757 5758 5760 5761 5762 5764 5765 5767 5769 5770 5771 5772 5773 5774 5775 5777 5779 5781 5782 5782 5783 5784 5785 5787 5788 5789 5790 5791 5792 5793 5794 5795 5796 5798 5799 5799 5799 5800 5800
5719 5718 5718 5718 5718 5718 5719 5719 5720 5720 5721 5722 5723 5724 5724 5725 5726 5727 5727 5728 5728 5729 5730 5731 5731 5732 5733 5733 5734 5734 5735 5737 5738 5739 5740 5740 5741 5742 5743 5743 5744 5745 5746 5747 5748 5749 5750 5752 5753 5754 5755 5756 5758 5760 5761 5763 5765 5767 5768 5769 5770 5771 5772 5773 5776 5778 5779 5780 5780 5781 5782 5783 5784 5785 5786 5788 5789 5791 5791 5792 5793 5795 5796 5797 5797 5797 5797 5798
5716 5716 5716 5716 5715 5715 5716 5716 5717 5717 5718 5719 5720 5721 5722 5722 5723 5724 5724 5725 5726 5726 5727 5728 5728 5729 5730 5731 5731 5732 5733 5734 5735 5736 5737 5738 5739 5739 5740 5741 5741 5742 5743 5744 5745 5746 5747 5748 5749 5751 5752 5754 5755 5757 5759 5760 5762 5764 5765 5766 5768 5769 5770 5772 5774 5776 5777 5778 5778 5779 5780 5780 5780 5782 5784 5785 5787 5788 5789 5790 5791 5793 5794 5795 5795 5795 5795 5796
5714 5714 5713 5713 5713 5713 5713 5713 5714 5715 5715 5716 5717 5718 5719 5719 5720 5721 5722 5722 5723 5723 5724 5725 5726 5726 5727 5728 5729 5729 5730 5731 5732 5733 5734 5735 5736 5737 5737 5738 5738 5739 5740 5741 5742 5743 5743 5745 5746 5748 5750 5751 5753 5754 5756 5758 5760 5762 5763 5764 5766 5767 5769 5770 5772 5773 5775 5776 5777 5778 5778 5778 5778 5780 5782 5783 5784 5785 5787 5788 5789 5791 5791 5792 5792 5792 5793 5793
5712 5711 5711 5710 5710 5710 5710 5710 5711 5712 5713 5713 5714 5715 5715 5716 5717 5718 5719 5719 5720 5720 5721 5722 5723 5723 5724 5725 5726 5727 5728 5729 5729 5731 5732 5733 5733 5734 5735 5735 5736 5736 5737 5738 5739 5740 5741 5742 5744 5746 5747 5749 5751 5752 5754 5756 5758 5759 5761 5763 5764 5766 5767 5768 5769 5771 5772 5773 5775 5776 5776 5776 5777 5779 5781 5781 5781 5782 5784 5786 5787 5788 5789 5789 5790 5790 5791 5791
5710 5709 5709 5708 5708 5708 5708 5708 5708 5709 5710 5710 5711 5712 5712 5713 5715 5715 5716 5717 5717 5718 5718 5719 5720 5721 5721 5722 5723 5724 5725 5725 5727 5728 5729 5730 5731 5732 5732 5733 5733 5734 5735 5736 5737 5738 5739 5740 5742 5743 5745 5747 5748 5750 5751 5753 5755 5757 5759 5760 5762 5764 5765 5766 5767 5768 5769 5771 5772 5773 5774 5775 5776 5777 5778 5779 5779 5780 5782 5784 5785 5786 5786 5787 5787 5788 5789 5789
5708 5707 5707 5706 5706 5705 5705 5705 5706 5706 5707 5707 5708 5709 5710 5711 5712 5713 5713 5714 5714 5715 5716 5716 5717 5718 5718 5719 5720 5722 5722 5723 5725 5726 5727 5728 5729 5729 5730 5730 5731 5732 5733 5734 5735 5736 5737 5738 5739 5740 5742 5744 5745 5747 5748 5750 5752 5755 5757 5758 5760 5761 5763 5764 5765 5766 5767 5768 5769 5770 5771 5773 5775 5776 5776 5776 5777 5779 5780 5782 5783 5783 5784 5785 5785 5786 5787 5787
5706 5705 5705 5704 5704 5703 5703 5703 5703 5703 5704 5704 5705 5706 5707 5708 5709 5710 5711 5711 5712 5712 5713 5714 5714 5715 5715 5716 5718 5718 5719 5721 5723 5723 5724 5725 5726 5727 5728 5728 5729 5730 5731 5732 5732 5733 5734 5735 5736 5738 5739 5741 5742 5744 5745 5747 5749 5752 5754 5756 5757 5759 5760 5762 5763 5763 5764 5764 5766 5767 5769 5771 5773 5774 5774 5774 5776 5777 5779 5780 5781 5781 5782 5783 5783 5784 5785 5785
5704 5703 5703 5702 5702 5701 5701 5700 5700 5701 5701 5702 5703 5704 5705 5706 5707 5707 5708 5708 5709 5710 5710 5711 5711 5712 5713 5714 5715 5715 5717 5719 5720 5721 5722 5723 5724 5725 5725 5726 5727 5728 5729 5729 5730 5731 5732 5733 5734 5735 5737 5738 5739 5741 5742 5744 5746 5749 5751 5753 5754 5756 5757 5759 5759 5760 5760 5761 5763 5765 5767 5769 5771 5771 5772 5773 5774 5775 5777 5778 5778 5779 5780 5780 5781 5782 5783 5783
5701 5701 5700 5700 5699 5699 5699 5698 5698 5698 5699 5700 5701 5701 5703 5703 5704 5705 5705 5706 5706 5707 5707 5708 5709 5709 5710 5711 5712 5712 5715 5717 5718 5719 5720 5721 5722 5723 5723 5724 5725 5726 5727 5728 5728 5729 5730 5731 5732 5733 5734 5736 5737 5738 5740 5741 5743 5746 5747 5749 5751 5753 5754 5755 5756 5757 5758 5760 5762 5763 5764 5767 5768 5769 5770 5771 5772 5773 5775 5776 5776 5777 5778 5778 5779 5780 5780 5781
5699 5699 5698 5698 5697 5697 5697 5696 5696 5696 5697 5697 5698 5699 5700 5701 5701 5702 5702 5703 5703 5704 5705 5705 5706 5707 5708 5709 5709 5710 5713 5714 5715 5716 5717 5719 5719 5720 5721 5722 5723 5724 5725 5726 5727 5728 5728 5729 5730 5731 5732 5733 5735 5736 5737 5738 5741 5743 5744 5746 5748 5750 5751 5752 5753 5754 5756 5758 5759 5761 5762 5764 5766 5767 5767 5768 5769 5770 5772 5773 5774 5775 5776 5776 5777 5778 5778 5779
5696 5696 5696 5696 5695 5695 5695 5694 5694 5694 5695 5695 5696 5697 5698 5698 5698 5699 5700 5700 5700 5701 5702 5703 5704 5705 5705 5706 5707 5708 5711 5712 5713 5714 5715 5716 5717 5718 5719 5720 5721 5722 5723 5724 5725 5726 5726 5727 5728 5729 5730 5732 5733 5734 5735 5736 5738 5739 5741 5743 5745 5747 5748 5749 5750 5752 5754 5756 5757 5759 5760 5761 5763 5764 5764 5766 5767 5768 5769 5770 5772 5773 5773 5774 5775 5775 5776 5776
5694 5694 5694 5693 5693 5693 5693 5692 5692 5692 5693 5693 5694 5695 5695 5695 5695 5696 5697 5697 5698 5699 5700 5700 5701 5702 5703 5704 5705 5707 5708 5709 5711 5712 5713 5714 5715 5716 5717 5718 5719 5720 5721 5722 5723 5724 5725 5726 5727 5728 5729 5730 5731 5732 5733 5734 5735 5737 5739 5741 5742 5744 5746 5746 5748 5750 5752 5754 5755 5757 5757 5758 5759 5760 5762 5762 5763 5765 5766 5768 5770 5770 5771 5772 5773 5773 5773 5774
5691 5691 5691 5691 5691 5691 5690 5690 5690 5690 5690 5691 5691 5692 5692 5692 5693 5693 5694 5695 5695 5697 5698 5698 5699 5700 5701 5703 5704 5705 5706 5707 5708 5710 5711 5712 5713 5714 5715 5716 5717 5718 5719 5720 5721 5722 5723 5724 5725 5726 5726 5727 5728 5729 5730 5731 5733 5735 5737 5738 5740 5742 5743 5744 5746 5748 5750 5751 5753 5754 5754 5755 5756 5758 5759 5759 5760 5762 5764 5766 5767 5768 5769 5770 5770 5771 5771 5772
5688 5688 5688 5688 5688 5688 5688 5688 5688 5688 5688 5689 5689 5689 5689 5689 5690 5691 5692 5692 5693 5695 5695 5696 5697 5698 5699 5701 5702 5703 5704 5705 5706 5708 5709 5710 5710 5712 5713 5714 5715 5716 5717 5718 5719 5721 5721 5722 5723 5723 5724 5725 5726 5727 5728 5730 5731 5733 5735 5737 5738 5740 5741 5742 5743 5745 5747 5749 5750 5751 5752 5753 5754 5755 5756 5757 5759 5760 5762 5763 5764 5765 5766 5767 5768 5768 5769 5770
5685 5685 5685 5685 5685 5686 5686 5686 5686 5686 5686 5686 5687 5687 5687 5687 5687 5689 5690 5690 5691 5692 5693 5693 5695 5695 5697 5699 5700 5701 5702 5703 5705 5706 5707 5708 5708 5710 5711 5712 5713 5714 5715 5716 5718 5719 5719 5720 5721 5722 5723 5724 5725 5726 5727 5728 5730 5732 5733 5735 5737 5738 5738 5740 5741 5743 5745 5747 5748 5749 5750 5751 5752 5753 5755 5756 5757 5758 5759 5760 5761 5763 5764 5765 5766 5767 5768 5769
5681 5681 5682 5682 5682 5683 5683 5683 5683 5683 5684 5684 5684 5684 5684 5684 5685 5687 5688 5688 5689 5690 5690 5691 5692 5693 5695 5697 5698 5699 5700 5701 5703 5704 5705 5706 5707 5708 5709 5710 5711 5712 5713 5714 5715 5716 5717 5718 5719 5720 5722 5722 5723 5724 5725 5727 5728 5730 5732 5733 5734 5735 5736 5737 5739 5741 5743 5745 5746 5747 5748 5749 5750 5752 5753 5754 5755 5756 5758 5758 5760 5761 5762 5763 5764 5765 5766 5767
5678 5678 5678 5678 5679 5680 5680 5680 5681 5681 5681 5681 5682 5681 5681 5682 5683 5684 5686 5686 5686 5687 5688 5689 5689 5691 5693 5695 5696 5697 5698 5699 5701 5702 5703 5704 5705 5706 5707 5708 5709 5710 5711 5712 5713 5714 5715 5716 5718 5719 5720 5721 5722 5723 5724 5725 5727 5729 5730 5731 5732 5733 5734 5735 5737 5739 5741 5743 5745 5746 5746 5748 5749 5750 5751 5753 5754 5755 5756 5757 5758 5760 5761 5762 5763 5764 5765 5765
5675 5675 5675 5675 5675 5676 5677 5677 5677 5678 5678 5679 5679 5679 5679 5679 5681 5682 5683 5684 5684 5685 5686 5686 5687 5688 5690 5693 5694 5694 5696 5697 5699 5700 5701 5702 5703 5704 5705 5706 5707 5708 5709 5710 5710 5712 5713 5714 5716 5717 5718 5719 5720 5721 5722 5724 5725 5727 5728 5729 5730 5731 5732 5734 5736 5737 5739 5741 5743 5744 5745 5746 5747 5749 5750 5751 5752 5754 5755 5756 5757 5759 5760 5761 5762 5763 5763 5764
5672 5672 5672 5672 5672 5672 5673 5674 5674 5675 5675 5676 5676 5676 5676 5677 5678 5680 5680 5682 5682 5682 5684 5684 5684 5686 5688 5690 5691 5692 5693 5695 5696 5697 5699 5700 5701 5702 5703 5704 5706 5706 5707 5708 5709 5710 5711 5713 5714 5715 5716 5718 5719 5720 5721 5723 5724 5725 5726 5727 5728 5729 5731 5732 5734 5736 5737 5739 5741 5742 5744 5745 5746 5747 5749 5750 5751 5752 5753 5755 5756 5757 5759 5759 5760 5761 5762 5762
5668 5668 5668 5668 5668 5668 5669 5670 5671 5671 5672 5673 5673 5673 5673 5674 5676 5677 5677 5679 5679 5680 5681 5681 5682 5684 5685 5687 5688 5689 5690 5692 5693 5695 5696 5697 5698 5700 5701 5702 5704 5705 5705 5706 5707 5708 5710 5711 5712 5713 5715 5716 5717 5718 5720 5721 5722 5723 5725 5726 5727 5728 5729 5731 5733 5734 5736 5738 5739 5741 5742 5744 5745 5746 5748 5749 5750 5751 5752 5753 5755 5756 5757 5758 5758 5759 5760 5761
5664 5665 5665 5664 5664 5665 5665 5666 5667 5667 5668 5670 5670 5670 5670 5671 5673 5674 5675 5676 5677 5677 5678 5678 5680 5681 5683 5684 5686 5687 5687 5689 5691 5692 5693 5694 5696 5698 5699 5700 5701 5702 5703 5704 5705 5706 5708 5709 5710 5711 5713 5714 5715 5716 5718 5719 5720 5722 5723 5724 5725 5727 5728 5730 5731 5733 5734 5736 5738 5739 5741 5742 5743 5744 5746 5748 5749 5750 5751 5752 5753 5754 5755 5756 5757 5757 5758 5759
5660 5661 5661 5661 5661 5661 5661 5662 5663 5664 5665 5666 5666 5667 5667 5668 5670 5671 5672 5673 5674 5674 5675 5676 5677 5678 5680 5682 5683 5684 5685 5686 5688 5689 5690 5692 5694 5695 5696 5698 5699 5700 5701 5702 5702 5704 5705 5706 5708 5709 5711 5712 5713 5714 5716 5717 5719 5720 5721 5722 5724 5725 5727 5728 5730 5731 5733 5734 5736 5737 5738 5740 5742 5743 5744 5746 5747 5748 5749 5750 5751 5752 5753 5754 5755 5756 5756 5756
5656 5656 5657 5657 5657 5658 5658 5658 5658 5660 5662 5662 5662 5663 5664 5665 5667 5668 5669 5671 5671 5671 5672 5673 5675 5676 5678 5680 5680 5681 5682 5683 5685 5686 5687 5689 5691 5692 5694 5695 5696 5698 5699 5700 5700 5701 5703 5704 5705 5707 5709 5710 5711 5712 5714 5715 5717 5718 5719 5721 5722 5724 5725 5727 5728 5729 5731 5732 5734 5735 5736 5738 5739 5740 5742 5743 5745 5746 5747 5748 5749 5750 5751 5752 5753 5754 5754 5754
5651 5651 5653 5654 5654 5654 5654 5653 5654 5656 5658 5658 5659 5659 5660 5661 5663 5664 5667 5668 5668 5668 5670 5671 5672 5673 5675 5677 5678 5679 5679 5681 5682 5683 5685 5686 5688 5689 5691 5692 5693 5695 5697 5698 5698 5699 5701 5702 5703 5705 5707 5708 5709 5710 5712 5713 5715 5717 5718 5719 5720 5722 5723 5725 5726 5727 5728 5730 5731 5733 5734 5735 5737 5738 5740 5741 5742 5744 5745 5746 5747 5749 5750 5751 5751 5752 5752 5752
5647 5647 5648 5649 5650 5650 5649 5649 5650 5652 5654 5654 5655 5655 5656 5657 5658 5662 5665 5665 5665 5665 5667 5668 5669 5671 5673 5674 5675 5676 5677 5678 5680 5681 5682 5684 5685 5687 5688 5690 5691 5693 5694 5696 5697 5697 5698 5700 5701 5703 5704 5706 5707 5708 5709 5711 5713 5714 5716 5717 5718 5719 5721 5722 5723 5724 5726 5727 5729 5731 5732 5733 5734 5735 5737 5739 5740 5741 5743 5744 5745 5747 5748 5748 5749 5750 5750 5750
5642 5643 5643 5645 5646 5646 5645 5645 5647 5648 5650 5651 5650 5651 5652 5652 5655 5660 5662 5661 5661 5663 5664 5665 5667 5668 5670 5671 5673 5673 5674 5675 5677 5678 5679 5681 5683 5684 5685 5687 5688 5690 5691 5693 5695 5695 5696 5698 5699 5700 5702 5703 5705 5706 5708 5709 5711 5713 5714 5715 5716 5717 5718 5719 5720 5722 5723 5725 5726 5728 5729 5730 5731 5733 5734 5736 5738 5739 5740 5741 5743 5744 5745 5746 5747 5747 5747 5747
5638 5639 5639 5640 5641 5641 5641 5642 5643 5644 5646 5646 5646 5647 5647 5648 5653 5658 5658 5658 5658 5659 5661 5662 5664 5665 5667 5669 5670 5671 5672 5673 5674 5676 5677 5678 5680 5681 5683 5684 5685 5687 5688 5690 5692 5693 5694 5695 5696 5698 5699 5701 5702 5704 5706 5708 5709 5710 5711 5713 5714 5714 5715 5716 5718 5719 5721 5722 5723 5725 5726 5726 5728 5730 5732 5733 5735 5736 5737 5739 5740 5741 5742 5743 5744 5744 5744 5744
5634 5635 5635 5635 5636 5637 5637 5637 5638 5640 5641 5641 5642 5641 5642 5646 5651 5654 5654 5654 5655 5656 5658 5660 5661 5662 5664 5665 5667 5668 5669 5670 5672 5673 5674 5676 5678 5679 5681 5682 5683 5685 5686 5687 5689 5690 5692 5693 5694 5696 5697 5699 5701 5702 5704 5705 5706 5707 5708 5710 5711 5712 5713 5714 5715 5716 5717 5719 5720 5721 5722 5723 5725 5728 5729 5731 5732 5733 5734 5735 5736 5737 5739 5740 5740 5741 5742 5742
5630 5630 5631 5631 5631 5632 5632 5632 5633 5634 5636 5637 5636 5636 5640 5645 5648 5649 5650 5651 5651 5653 5655 5656 5657 5659 5660 5662 5664 5665 5667 5668 5669 5671 5672 5673 5675 5677 5678 5680 5681 5682 5683 5685 5686 5688 5690 5692 5693 5694 5695 5697 5698 5700 5701 5702 5704 5705 5705 5707 5709 5710 5711 5711 5712 5713 5714 5715 5717 5718 5719 5721 5723 5725 5727 5729 5730 5731 5731 5732 5732 5733 5734 5735 5736 5737 5737 5738
5626 5626 5626 5627 5627 5627 5627 5627 5627 5628 5631 5632 5631 5633 5638 5641 5642 5644 5646 5647 5648 5650 5651 5653 5654 5656 5657 5659 5661 5662 5664 5665 5667 5668 5670 5671 5673 5674 5676 5677 5678 5680 5681 5682 5684 5685 5687 5689 5690 5691 5693 5694 5696 5697 5698 5699 5701 5702 5703 5705 5706 5707 5708 5709 5710 5710 5711 5712 5714 5715 5717 5718 5720 5722 5724 5726 5727 5728 5728 5728 5728 5729 5729 5730 5731 5732 5732 5733
5622 5621 5621 5622 5622 5622 5622 5623 5623 5623 5625 5626 5627 5630 5634 5636 5638 5639 5641 5643 5644 5646 5647 5649 5650 5652 5654 5656 5657 5659 5661 5662 5664 5665 5667 5668 5670 5672 5673 5675 5676 5677 5679 5680 5681 5683 5684 5686 5687 5688 5690 5691 5693 5694 5695 5696 5698 5700 5701 5702 5703 5704 5705 5706 5707 5708 5709 5710 5711 5713 5714 5716 5718 5719 5721 5722 5723 5724 5724 5724 5724 5725 5725 5726 5727 5728 5728 5729
5617 5617 5616 5616 5617 5617 5617 5617 5618 5618 5619 5621 5624 5627 5630 5632 5634 5635 5636 5638 5640 5641 5643 5645 5646 5648 5650 5652 5654 5655 5657 5659 5660 5662 5664 5665 5667 5669 5670 5672 5673 5674 5676 5677 5678 5680 5682 5683 5684 5685 5687 5688 5689 5691 5692 5694 5695 5697 5698 5699 5700 5702 5703 5704 5705 5706 5707 5707 5709 5710 5711 5713 5715 5716 5717 5718 5719 5720 5721 5721 5721 5721 5721 5722 5723 5724 5725 5726
5613 5612 5611 5611 5611 5611 5612 5612 5612 5613 5614 5617 5621 5623 5625 5627 5629 5630 5631 5633 5634 5637 5639 5641 5643 5644 5646 5649 5650 5652 5654 5656 5657 5659 5661 5662 5663 5665 5667 5669 5670 5671 5673 5674 5676 5677 5678 5680 5681 5682 5684 5685 5686 5687 5689 5691 5692 5694 5695 5696 5697 5699 5700 5701 5702 5703 5704 5705 5706 5708 5709 5711 5712 5713 5714 5715 5716 5717 5718 5718 5718 5718 5718 5719 5720 5721 5722 5723
5608 5607 5606 5606 5605 5606 5606 5607 5607 5608 5610 5613 5616 5618 5620 5622 5624 5625 5626 5627 5629 5632 5634 5637 5639 5641 5643 5645 5647 5648 5650 5652 5654 5656 5657 5659 5660 5661 5663 5665 5667 5668 5669 5671 5672 5673 5675 5677 5678 5679 5680 5682 5683 5684 5686 5688 5689 5690 5692 5694 5695 5696 5697 5698 5699 5700 5702 5703 5704 5706 5707 5708 5709 5710 5711 5713 5714 5715 5715 5715 5715 5716 5716 5717 5718 5719 5719 5720
5603 5602 5601 5601 5600 5600 5601 5601 5602 5603 5605 5607 5610 5612 5614 5616 5618 5619 5620 5622 5625 5627 5630 5633 5635 5637 5639 5641 5643 5644 5647 5648 5650 5652 5654 5656 5657 5658 5660 5661 5663 5664 5666 5667 5669 5670 5671 5673 5675 5676 5677 5678 5680 5681 5683 5684 5686 5687 5688 5690 5691 5692 5694 5695 5696 5698 5699 5701 5702 5704 5705 5705 5706 5707 5709 5710 5711 5712 5712 5713 5713 5713 5714 5715 5715 5716 5717 5718
5599 5597 5597 5596 5595 5594 5595 5595 5596 5598 5599 5602 5605 5606 5608 5610 5612 5614 5616 5618 5620 5623 5626 5629 5631 5633 5635 5637 5639 5641 5643 5645 5647 5649 5650 5652 5654 5655 5656 5658 5659 5660 5662 5663 5665 5666 5667 5669 5670 5672 5673 5675 5677 5678 5679 5680 5682 5683 5685 5686 5688 5689 5691 5692 5694 5695 5697 5698 5700 5701 5702 5703 5704 5705 5706 5707 5708 5709 5710 5710 5711 5711 5712 5712 5713 5714 5715 5716
5594 5593 5592 5591 5590 5589 5589 5590 5591 5592 5594 5597 5599 5601 5603 5605 5607 5610 5612 5614 5617 5620 5622 5625 5627 5630 5632 5634 5636 5637 5639 5641 5644 5645 5647 5648 5650 5651 5653 5654 5656 5656 5657 5658 5660 5662 5663 5664 5666 5668 5670 5671 5672 5673 5675 5676 5678 5680 5681 5683 5685 5686 5688 5689 5691 5692 5693 5695 5697 5698 5699 5700 5701 5702 5703 5704 5706 5707 5708 5708 5709 5709 5710 5710 5711 5711 5712 5713
5591 5589 5587 5586 5585 5584 5584 5585 5586 5587 5589 5592 5594 5596 5598 5601 5603 5606 5609 5611 5613 5616 5618 5621 5624 5626 5628 5630 5632 5634 5636 5638 5640 5642 5643 5645 5646 5647 5649 5651 5652 5652 5653 5654 5656 5658 5659 5660 5662 5664 5666 5668 5669 5670 5672 5673 5675 5677 5679 5680 5681 5683 5684 5686 5687 5689 5690 5692 5693 5694 5696 5697 5698 5699 5700 5701 5703 5704 5705 5706 5706 5707 5708 5708 5709 5709 5710 5710
5587 5585 5583 5582 5580 5580 5580 5581 5582 5583 5585 5587 5590 5592 5595 5597 5600 5603 5605 5608 5610 5612 5615 5617 5620 5622 5625 5627 5629 5631 5633 5634 5636 5638 5639 5641 5642 5643 5645 5647 5648 5649 5649 5651 5653 5655 5656 5656 5658 5661 5663 5665 5666 5668 5670 5672 5673 5674 5675 5677 5678 5679 5681 5683 5684 5685 5687 5688 5690 5691 5692 5694 5695 5696 5697 5698 5699 5701 5702 5703 5703 5704 5705 5705 5706 5706 5707 5707
5584 5581 5579 5578 5577 5577 5577 5578 5579 5580 5582 5584 5586 5589 5592 5594 5597 5600 5602 5604 5607 5609 5611 5614 5616 5619 5621 5623 5626 5628 5630 5631 5633 5635 5636 5637 5639 5640 5641 5643 5645 5645 5646 5648 5650 5652 5653 5653 5654 5657 5659 5660 5661 5663 5665 5667 5668 5669 5671 5673 5674 5675 5677 5679 5680 5682 5683 5685 5686 5687 5688 5690 5692 5693 5694 5695 5696 5697 5698 5699 5700 5701 5701 5702 5702 5703 5704 5704
5582 5579 5577 5576 5574 5574 5574 5575 5577 5578 5579 5581 5584 5586 5589 5591 5594 5597 5599 5601 5603 5606 5608 5610 5613 5615 5618 5620 5622 5624 5626 5628 5629 5631 5633 5634 5636 5637 5639 5640 5641 5642 5643 5645 5646 5648 5649 5650 5652 5653 5655 5655 5656 5658 5660 5662 5663 5664 5666 5668 5669 5671 5673 5674 5676 5677 5679 5681 5682 5683 5685 5686 5688 5689 5690 5691 5692 5693 5694 5695 5696 5697 5697 5698 5699 5700 5700 5701
5581 5578 5576 5574 5572 5571 5571 5572 5574 5576 5577 5578 5581 5584 5586 5589 5591 5593 5596 5598 5601 5603 5605 5607 5609 5612 5614 5616 5619 5621 5623 5625 5626 5628 5630 5631 5633 5635 5636 5637 5638 5639 5640 5642 5643 5644 5646 5648 5649 5650 5651 5652 5653 5655 5656 5658 5659 5660 5661 5663 5665 5667 5668 5669 5671 5673 5675 5676 5678 5680 5681 5682 5684 5685 5686 5687 5688 5689 5690 5691 5691 5692 5693 5694 5695 5696 5697 5697
5580 5577 5574 5572 5569 5568 5568 5569 5572 5574 5575 5576 5579 5581 5584 5587 5589 5591 5593 5595 5598 5600 5602 5604 5606 5609 5611 5613 5615 5617 5619 5622 5623 5624 5626 5628 5630 5631 5633 5634 5635 5636 5637 5638 5639 5641 5643 5644 5646 5647 5648 5650 5651 5652 5653 5654 5656 5657 5658 5660 5661 5662 5663 5665 5666 5668 5670 5672 5674 5676 5677 5678 5679 5681 5682 5684 5685 5685 5686 5687 5687 5688 5689 5690 5691 5692 5693 5694
5579 5576 5573 5570 5567 5566 5566 5567 5570 5573 5574 5575 5577 5580 5582 5585 5588 5589 5591 5593 5595 5597 5599 5601 5604 5606 5608 5610 5612 5614 5616 5618 5620 5621 5623 5625 5626 5627 5629 5630 5632 5633 5634 5634 5636 5638 5639 5640 5642 5644 5645 5646 5647 5649 5650 5650 5652 5653 5654 5656 5657 5658 5659 5660 5662 5663 5666 5668 5669 5671 5673 5674 5675 5677 5678 5679 5681 5681 5682 5683 5683 5684 5685 5685 5686 5688 5689 5689
5580 5576 5573 5569 5567 5566 5565 5566 5568 5571 5573 5575 5577 5578 5581 5584 5586 5588 5590 5592 5594 5595 5597 5599 5601 5603 5605 5607 5609 5611 5613 5614 5616 5618 5620 5622 5623 5624 5625 5627 5628 5630 5631 5631 5632 5634 5636 5637 5639 5641 5641 5642 5643 5645 5646 5647 5648 5650 5652 5653 5654 5655 5656 5657 5658 5659 5661 5663 5665 5666 5668 5669 5670 5672 5673 5675 5676 5677 5678 5679 5679 5680 5681 5681 5682 5683 5684 5684